Rbgn^[z[y[W
メイン
   新天体発見情報
     Comet C/2020 X4 (Leonard)
投稿するにはまず登録を

スレッド表示 | 新しいものから 前のトピック | 次のトピック | 下へ
投稿者 スレッド
佐藤裕久
投稿日時: 2021-1-24 2:30
モデレータ
登録日: 2005-6-12
居住地: 日本
投稿: 2180
オンライン
Comet C/2020 X4 (Leonard)

Gregory J. Leonardの通報によると、2020年12月14.1日UT、Mt Lemmonサーベイの1.5-m 反射
望遠鏡で得たCCD画像から彗星を発見した。
Leonardは、1".8のシーイングで、30秒露出した4枚で、約10"-12"の拡散したコマと認識できる
尾はなかったと注記した。
小惑星センターのPCCP webpageに公表後、E. Bryssinck (Kruibeke, ベルギー, 2020年12月15.8日
UT, 0.4-m f/3.8反射望遠鏡: 拡散した約8"の丸いコマが見えるが尾はない。5"の範囲の光度は
19.8等であった)や佐藤英貴氏(東京都文京区, 12月17.05日UT,60秒露出14枚のスタック, 0.43-m 
f/6.8 アストログラフ, Mayhill近郊, ニューメキシコ州, 遠隔操作:強く集光した8"の拡散した
コマが見えるが尾はない。5".7の円形範囲で測定した光度は20.0等であった)らCCD位置観測者に
よって彗星状と観測された。

彗星機能の報告は次の通り:

OC   Date        Reporter           Coma    Tail    PA          Exposures
I52  2020-12-14  C. Fuls            6".8 
B96  2020-12-15  E. Bryssinck       8"                           35x120s
H06  2020-12-17  H. Sato            8"                           16x60s
F51  2020-12-17  R. Weryk           1".3     4"     120           3x45s
H06  2021 01 05  H. Sato            6"                           14x60s

発見位置は次のとおり、

     2020 UT             R.A. (2000) Decl.       Mag.   Observer
     Dec. 14.08535   20 57 33.40   +18 07 36.5   20.0   Leonard
          14.08973   20 57 33.61   +18 07 33.9   20.0     "
          14.09412   20 57 33.83   +18 07 31.6   20.0     "
          14.09849   20 57 33.98   +18 07 29.7   20.0     "

MPCの準放物線軌道要素、位置推算表は次のとおり、

Orbital elements:
    C/2020 X4 (Leonard)                                                         
Epoch 2020 Nov. 7.0 TT = JDT 2459160.5                                          
T 2020 Nov. 10.79651 TT                                 Rudenko                 
q   5.2092780            (2000.0)            P               Q                  
z  +0.0213968      Peri.  139.48854     +0.68928909     +0.65652783             
 +/-0.0000000      Node   161.90273     -0.56521877     +0.22278915             
e   0.8885382      Incl.   80.47920     +0.45321991     -0.72064985             
From 80 observations 2020 Dec. 14-2021 Jan. 5, mean residual 0".6.              
                                                                                
    C/2020 X4 (Leonard)                                                         
Epoch 2020 Dec. 17.0 TT = JDT 2459200.5                                         
T 2020 Nov. 10.85337 TT                                 Rudenko                 
q   5.2092870            (2000.0)            P               Q                  
z  +0.0213833      Peri.  139.49514     +0.68936319     +0.65644240             
 +/-0.0000000      Node   161.90180     -0.56519304     +0.22283223             
e   0.8886083      Incl.   80.48035     +0.45313930     -0.72071435             
From 80 observations 2020 Dec. 14-2021 Jan. 5, mean residual 0".6.              
                                                                                
Ephemeris:
Date    TT    R. A. (2000) Decl.     Delta      r    Elong.  Phase   m1 
2020 12 11    20 55 14.8 +18 33 31   5.4951  5.2137    68.4    10.1  19.9
...
2020 12 26    21 06 53.4 +16 39 06   5.6847  5.2191    57.3     9.1  19.9
...
2021 01 03    21 13 26.6 +15 49 30   5.7782  5.2229    51.5     8.5  20.0
...
2021 01 09    21 18 28.2 +15 17 09   5.8437  5.2262    47.2     7.9  20.0
2021 01 10    21 19 18.9 +15 12 09   5.8542  5.2267    46.5     7.8  20.0
2021 01 11    21 20 09.7 +15 07 15   5.8645  5.2273    45.9     7.8  20.0
...
2021 01 17    21 25 16.6 +14 40 07   5.9235  5.2310    41.8     7.2  20.0
...
2021 01 25    21 32 09.1 +14 09 32   5.9935  5.2365    36.6     6.4  20.1
...
2021 02 09    21 45 03.5 +13 27 27   6.0947  5.2484    28.5     5.1  20.1

(MPEC 2021-A101、CBET 4909)

スレッド表示 | 新しいものから 前のトピック | 次のトピック | トップ

投稿するにはまず登録を
 
© 1999 Tsutomu Seki.